Theta_e
304 304 304 304 304 304 304 304 304 304 304 304 305 305 304 304 304 303 303 303 303 303 303 303 303 303 303 304 305 306 307 305 303 304 304 303 303 303 304 305 305 306 306 306 307 307 307 307 306 306 307 307 307 307 306 307 307 309 315 313 312 316 316 316 317 312 310 314 311 307 305 306 307 306 306 307 308 307 307 307 309 309 308 308 310 312 311 312
303 304 304 304 304 304 304 304 304 304 304 304 305 305 305 304 304 304 304 303 303 303 303 303 303 303 304 306 306 306 308 307 304 303 303 302 302 303 304 305 305 306 306 306 307 307 307 307 307 307 307 307 307 306 307 308 306 309 312 308 312 318 312 309 310 307 308 310 308 306 305 305 306 306 306 307 307 306 307 309 308 309 310 310 307 308 306 307
303 304 303 303 304 304 304 304 304 304 304 304 304 305 305 305 304 304 304 303 303 303 303 303 303 303 304 307 307 305 307 308 305 303 302 302 302 302 303 305 304 305 305 306 306 306 306 306 307 307 307 307 307 307 307 307 306 305 307 310 315 311 305 304 304 305 307 308 306 305 305 304 306 306 306 306 306 306 307 308 308 309 310 310 307 307 305 309
303 303 303 303 304 304 305 304 304 304 304 304 304 305 304 305 304 304 304 304 303 303 303 303 303 303 304 307 306 304 307 309 305 303 302 302 302 303 304 304 304 305 305 305 305 306 306 306 307 307 307 307 306 307 306 307 307 304 306 313 310 302 303 306 305 305 306 306 306 305 305 305 306 306 306 305 307 308 308 308 308 308 309 309 307 308 306 308
303 303 303 303 303 304 305 304 304 304 304 304 304 304 305 304 304 304 304 304 304 303 303 303 303 303 303 307 306 304 308 309 305 303 303 302 302 303 304 304 304 305 305 305 306 306 306 306 307 307 307 307 306 308 306 305 306 306 307 307 304 301 305 307 305 306 306 306 306 305 305 306 306 306 306 305 307 309 309 310 310 308 309 309 307 308 307 305
303 303 303 304 303 304 304 304 305 304 304 304 304 305 304 305 304 304 304 304 304 303 303 303 303 303 303 305 307 304 306 307 304 303 303 302 302 303 304 304 304 305 305 305 306 306 307 306 306 306 306 305 306 308 306 305 305 309 309 305 304 305 305 307 307 307 307 306 306 305 306 306 305 306 306 305 307 309 310 310 309 309 309 308 308 307 308 306
303 303 303 303 303 304 304 304 305 304 304 304 304 304 304 305 304 304 304 304 304 303 303 303 303 303 303 304 307 305 303 304 303 303 303 302 302 302 304 304 304 305 305 306 307 307 306 306 306 305 305 305 304 306 305 305 304 308 311 306 306 306 305 307 307 307 307 307 307 306 306 305 306 307 307 306 308 310 310 310 308 309 309 308 308 307 308 307
303 303 303 303 303 303 304 304 305 304 304 304 304 305 305 305 305 305 305 304 304 304 303 303 303 303 303 304 307 306 303 303 303 303 303 302 302 302 304 304 304 305 305 306 307 307 307 307 306 305 306 306 305 305 304 305 306 307 310 306 305 307 306 307 307 307 307 307 307 306 305 306 307 307 305 307 310 310 309 309 308 308 309 308 308 308 308 308
303 303 303 303 303 303 303 304 305 305 304 304 304 304 305 305 305 305 304 304 304 304 303 303 303 303 303 305 307 306 304 303 303 303 303 302 302 302 304 304 304 305 305 306 308 308 307 307 307 306 306 305 305 304 304 307 307 306 307 306 305 306 306 307 307 307 307 307 307 307 306 307 306 306 307 309 309 310 309 308 308 308 308 308 308 308 308 307
304 303 303 303 303 303 303 304 304 305 304 304 304 304 305 305 305 305 305 305 304 304 303 303 303 303 303 305 306 305 303 303 302 302 303 302 302 302 304 303 304 305 304 306 308 308 307 307 308 306 306 305 305 305 304 306 307 305 305 305 305 306 306 306 307 307 307 307 307 308 310 307 306 307 310 310 308 309 309 308 308 308 308 308 308 308 308 308
304 303 303 303 303 303 303 304 304 304 304 304 304 304 305 305 305 305 305 305 304 304 303 303 303 303 303 304 305 304 303 303 303 303 303 303 303 303 304 303 304 305 304 305 308 309 308 308 308 307 307 307 306 306 305 305 306 306 305 308 307 306 306 305 306 307 305 307 307 307 309 306 305 308 310 309 308 309 308 309 308 308 308 308 308 308 308 308
304 304 303 303 303 303 303 303 304 304 304 304 304 305 305 305 305 305 305 304 304 304 303 303 303 303 303 303 305 305 304 304 303 303 303 303 303 303 304 303 304 305 304 305 308 309 309 308 308 308 308 307 308 307 307 306 307 306 306 311 311 308 309 307 307 307 304 306 307 306 309 310 310 311 310 308 308 309 308 308 308 308 308 308 308 308 308 308
304 303 303 303 303 303 303 303 304 304 304 304 304 304 304 305 304 304 305 304 304 304 304 304 304 304 303 304 305 305 304 304 304 303 303 303 303 303 303 303 304 305 304 305 308 309 309 309 308 308 308 308 309 308 308 306 306 308 305 310 315 311 311 308 305 305 304 306 307 306 308 312 315 311 307 308 308 308 308 307 307 307 307 307 307 307 308 308
304 304 303 303 303 303 303 303 304 304 304 304 304 304 304 304 304 304 305 304 304 304 304 305 305 304 304 304 306 305 305 305 304 303 302 303 303 303 303 303 305 305 304 305 308 309 308 309 308 308 309 308 308 308 308 306 307 311 307 309 312 309 312 310 303 304 306 307 307 308 308 310 312 309 306 308 307 307 307 306 307 307 307 307 307 307 307 308
304 304 303 303 303 303 303 303 303 304 304 304 304 304 304 304 304 304 304 304 305 304 304 306 306 304 305 305 306 306 305 305 304 303 303 303 304 303 303 304 305 304 304 306 308 309 308 309 308 308 308 308 309 310 310 309 310 311 308 310 311 306 310 309 302 303 306 307 306 307 310 309 308 307 307 307 307 306 306 306 306 306 306 307 307 307 307 308
304 303 303 303 303 303 303 303 303 304 304 304 304 304 304 304 304 304 304 305 305 304 305 307 306 305 306 306 307 306 305 304 303 303 303 303 304 303 303 305 305 304 304 307 308 307 308 309 307 307 308 309 312 312 313 315 315 311 307 309 312 308 307 306 304 303 303 306 307 306 308 309 308 306 306 306 306 306 305 305 306 306 306 307 307 307 307 308
304 304 303 303 303 303 303 303 303 303 303 304 303 304 304 304 304 303 304 306 307 305 306 308 306 306 308 308 307 306 304 304 303 303 304 304 304 303 304 305 304 304 305 307 307 306 308 308 307 307 307 308 310 311 313 318 316 312 309 309 311 308 306 307 308 304 302 305 307 307 307 307 307 305 305 306 305 305 305 305 305 306 307 307 307 307 307 307
304 303 303 303 303 303 303 303 303 303 303 303 303 303 304 304 304 304 306 308 307 305 308 309 306 307 309 308 307 305 303 303 303 304 304 304 304 303 304 305 304 305 306 307 306 306 308 306 306 312 313 310 311 313 312 310 308 310 310 310 310 307 306 307 307 305 304 306 306 306 306 306 306 305 304 305 305 304 304 305 305 306 307 307 307 307 307 307
304 303 303 303 303 303 303 303 303 303 303 303 303 303 303 303 303 305 307 307 306 307 309 309 306 307 307 306 305 303 303 304 303 304 304 304 304 303 304 305 304 304 305 308 307 305 306 307 308 313 315 311 310 312 313 309 307 309 308 308 308 308 306 305 306 305 303 306 307 306 307 306 305 305 304 304 304 303 304 304 305 306 307 307 307 307 307 307
304 304 303 303 303 303 303 303 303 303 303 303 303 303 303 303 304 307 307 306 306 306 307 306 305 305 305 303 303 303 304 305 304 304 304 304 303 303 304 304 304 305 305 308 310 304 305 312 311 310 310 308 308 310 310 309 307 308 308 308 307 306 306 304 304 304 302 306 309 307 306 306 305 305 304 303 304 303 303 304 305 306 307 307 307 307 307 307
304 303 303 303 303 303 303 303 303 303 303 303 303 303 303 303 304 306 305 305 305 305 305 305 306 306 305 303 303 304 304 304 305 304 304 304 303 304 305 304 306 307 304 303 306 304 305 310 309 309 308 305 306 308 308 308 307 308 308 308 306 305 306 304 303 304 303 305 307 306 306 306 304 305 303 302 305 305 304 304 305 306 307 307 307 307 307 307
304 303 303 303 303 303 303 302 302 302 302 303 303 302 303 303 304 304 304 304 305 305 305 305 306 306 304 304 304 305 304 304 304 304 304 304 304 305 304 306 310 310 305 305 308 309 311 310 307 305 303 302 306 306 307 308 307 307 306 305 307 307 306 305 304 304 304 305 307 306 306 306 304 305 304 302 304 306 305 305 306 306 307 307 307 307 307 306
303 303 303 303 303 303 302 302 302 302 302 303 302 303 303 303 303 303 303 305 305 305 305 305 305 305 304 304 305 305 304 304 304 304 305 304 304 305 304 307 313 311 309 312 311 310 312 310 306 302 300 305 309 306 305 307 307 307 305 305 308 307 305 306 306 305 304 304 305 306 305 304 305 308 308 304 303 305 306 306 307 307 307 307 307 307 307 306
303 303 303 303 303 303 303 302 302 302 302 302 302 303 303 303 303 303 303 305 305 305 305 306 305 304 304 304 305 306 305 304 304 304 305 304 303 305 304 305 310 310 309 310 308 308 310 305 301 301 303 307 309 307 307 307 309 310 306 306 309 307 305 306 305 303 304 304 303 304 307 309 309 310 311 307 305 305 305 306 307 307 307 307 307 307 306 306
303 303 303 303 303 303 302 302 302 302 302 302 302 302 302 303 302 303 306 308 311 310 306 306 307 304 304 305 306 306 305 305 305 304 305 304 304 305 304 303 306 308 309 307 308 311 310 303 300 305 308 307 307 308 308 307 309 310 308 308 308 306 305 305 304 303 308 310 305 303 309 316 312 308 310 311 310 309 305 304 306 306 307 307 307 307 306 306
302 302 303 303 303 302 301 302 302 301 302 302 302 302 302 303 303 304 309 314 318 315 306 305 307 306 306 306 306 305 306 306 304 305 304 304 305 305 305 304 302 305 307 306 308 307 305 302 301 307 310 308 309 308 305 307 310 309 308 307 306 305 304 305 304 305 310 311 306 304 308 312 309 308 310 311 311 310 306 306 305 305 306 307 306 306 306 306
302 302 302 303 303 302 301 302 302 302 302 302 303 303 302 304 304 304 310 315 316 312 308 306 306 307 308 306 305 305 307 307 304 305 304 303 306 304 306 308 304 304 304 305 310 308 305 305 303 306 310 310 310 307 305 307 309 310 306 303 305 304 304 304 303 305 306 306 306 305 307 308 307 308 308 308 309 308 308 309 306 304 306 307 306 306 306 306
303 302 303 303 302 302 302 302 303 302 301 303 303 302 302 304 304 307 312 314 311 310 309 306 305 307 307 305 305 305 306 305 304 306 305 303 305 303 305 308 306 306 302 303 312 310 303 306 304 305 308 309 309 306 305 306 307 310 306 302 304 303 303 303 302 304 302 303 310 308 304 307 309 309 307 306 308 308 309 308 306 305 307 306 306 306 306 306
303 302 303 303 302 302 301 301 304 302 302 304 302 302 304 303 304 309 313 312 309 310 308 306 307 306 305 305 305 304 304 304 304 305 304 304 306 305 305 305 303 306 302 302 311 310 301 302 302 302 306 308 309 306 305 307 307 306 303 303 304 302 302 301 300 304 303 306 314 309 304 307 309 310 308 307 309 309 306 305 305 306 306 306 306 305 305 306
303 303 302 303 302 301 301 301 303 302 302 303 303 304 303 305 312 314 311 312 311 308 306 306 306 304 304 305 304 303 303 304 304 304 304 303 304 303 304 304 301 304 306 302 306 307 300 300 300 301 304 304 305 303 301 303 304 303 304 306 306 303 302 300 299 302 306 313 314 306 304 306 308 313 312 309 308 306 304 304 306 307 306 306 305 305 305 306
304 304 302 303 302 301 301 301 302 303 302 303 303 303 302 308 319 320 312 312 311 308 306 306 305 305 305 306 305 304 303 303 302 304 306 306 307 306 304 306 304 308 315 311 308 308 302 302 303 302 302 301 303 303 299 298 299 302 307 308 307 309 306 305 306 305 310 317 310 302 302 303 308 315 313 309 307 304 304 305 306 307 306 305 305 305 305 305
305 304 303 303 302 302 301 300 303 303 302 304 302 303 308 308 310 315 316 314 310 309 308 306 305 306 306 305 306 306 305 304 303 305 307 307 311 310 306 307 306 311 322 314 310 313 308 305 302 301 303 301 305 308 305 303 303 306 309 307 308 315 313 310 313 313 315 315 306 301 303 305 309 312 309 308 306 303 304 306 307 306 305 304 304 304 304 305
305 304 303 302 301 301 301 300 303 302 302 303 301 305 312 309 307 313 317 315 309 306 306 306 305 305 305 305 306 304 303 303 304 304 303 303 308 307 303 303 302 306 315 308 306 313 314 309 303 303 306 302 304 309 310 310 308 308 309 306 309 315 314 314 315 312 312 310 305 302 305 308 311 312 311 308 305 304 306 306 307 306 304 304 303 303 304 305
304 304 303 302 301 301 301 301 302 302 302 302 302 307 308 307 311 313 313 313 307 303 305 305 305 304 303 305 306 303 303 303 303 304 303 304 309 308 305 304 301 303 310 307 303 305 310 311 307 303 304 303 304 306 307 308 307 307 304 303 307 312 312 314 315 313 310 308 305 303 307 312 313 313 311 306 304 306 307 305 305 304 303 303 303 303 304 305
304 304 303 303 301 300 301 301 302 302 301 301 305 309 305 304 310 313 316 315 308 305 304 302 303 304 305 307 306 302 303 304 303 303 304 306 310 311 311 310 304 302 306 305 303 302 304 309 306 300 300 303 305 303 302 306 307 304 302 303 306 308 309 310 311 310 307 306 305 304 310 314 312 311 309 306 307 308 306 304 303 303 303 302 302 302 303 305
304 304 304 303 301 300 300 301 303 301 300 303 304 305 306 307 311 313 314 311 308 308 305 304 306 306 308 311 308 302 302 302 302 304 306 305 307 308 310 311 305 301 303 303 304 304 306 309 305 301 301 301 303 304 301 303 306 304 304 306 303 301 306 309 307 305 303 305 308 306 310 311 310 312 310 309 311 307 304 304 302 302 302 302 302 301 303 305
304 304 304 303 301 300 300 302 303 300 300 303 304 306 308 308 309 312 309 305 306 307 307 312 312 309 312 313 308 305 303 303 303 306 309 307 306 307 309 308 302 299 301 301 302 301 304 309 305 302 306 302 299 303 301 299 303 307 306 305 300 299 304 305 305 307 306 307 309 307 310 311 310 312 311 310 310 306 304 303 301 302 302 301 301 301 303 306
304 304 304 304 302 300 300 302 303 300 300 301 303 309 310 305 303 306 305 302 304 307 310 315 311 308 313 314 310 305 303 307 308 307 311 309 306 308 310 308 302 298 297 298 302 301 301 308 305 300 304 303 298 302 304 300 299 303 303 301 300 301 304 304 305 308 308 308 308 309 309 310 312 313 311 311 309 305 304 303 301 301 301 301 301 301 304 307
305 304 304 304 302 300 300 303 302 299 300 302 303 307 308 305 302 302 304 303 304 306 310 311 307 305 309 311 310 306 303 309 311 308 309 308 305 306 307 307 304 300 297 297 304 304 301 305 309 304 300 301 301 303 307 305 299 299 303 302 301 301 304 304 304 306 309 309 309 309 310 311 314 315 311 310 309 305 303 302 301 301 300 300 300 301 304 307
305 304 304 303 302 301 300 303 301 298 301 302 302 304 304 303 302 301 303 303 303 304 307 310 308 307 308 306 307 307 304 306 309 308 308 307 306 305 304 304 305 301 298 297 302 306 303 302 309 309 301 301 304 303 305 307 303 303 306 304 303 302 302 302 301 303 306 309 309 308 309 310 311 314 312 309 308 305 303 303 301 300 300 300 301 303 305 307
305 303 303 302 302 301 300 302 299 298 301 302 302 303 303 303 302 301 302 302 302 302 305 308 309 308 309 306 306 307 305 304 305 306 306 306 306 305 303 302 303 301 300 300 302 305 304 303 307 310 308 308 307 300 299 303 305 306 306 304 305 305 303 302 302 302 302 306 308 307 307 309 309 313 314 309 307 305 303 302 300 299 299 300 302 304 306 307
304 303 302 301 301 301 300 301 298 297 301 303 302 303 304 303 303 302 301 301 301 300 301 304 307 308 309 308 307 306 307 307 304 304 306 306 305 304 302 301 301 301 302 304 303 301 301 303 306 308 308 307 301 294 293 296 299 303 302 301 304 304 304 304 304 304 302 302 305 305 306 310 310 313 314 309 305 303 301 301 300 299 299 301 303 305 307 308
304 302 301 301 300 300 300 301 299 298 301 301 300 301 303 303 302 301 301 301 301 301 301 302 303 305 306 305 304 305 306 307 305 306 309 306 302 301 299 300 301 300 301 304 302 299 301 304 307 308 309 304 297 294 293 292 296 301 301 300 302 303 304 305 303 302 302 303 305 305 306 310 311 313 310 306 303 302 301 300 299 299 299 301 304 305 306 307
302 301 300 300 299 299 300 300 301 300 300 299 299 300 301 301 301 302 303 303 302 301 303 304 301 303 304 301 303 306 305 305 305 304 306 304 301 300 298 300 300 299 300 302 301 301 303 306 307 309 312 310 308 307 303 298 299 304 303 300 301 302 302 302 301 300 302 304 306 307 309 311 311 312 306 302 303 303 301 300 299 299 299 300 303 306 306 307
301 300 299 299 299 299 299 298 299 300 300 300 300 301 302 301 301 302 302 303 301 299 302 303 300 302 303 300 302 304 302 303 304 302 302 302 300 299 299 300 299 298 299 299 299 300 303 305 305 306 309 310 313 316 311 304 303 303 300 299 300 301 301 302 302 302 304 304 304 308 312 310 306 305 303 302 302 302 301 300 299 299 299 299 301 305 306 306
302 301 299 298 299 298 298 297 297 298 300 300 300 302 304 303 301 300 300 301 300 298 300 300 299 301 303 301 303 304 301 302 303 302 303 302 301 299 299 299 298 299 300 299 298 300 303 303 303 306 310 309 309 311 305 300 301 302 300 299 300 300 300 302 302 303 304 303 304 307 307 305 305 303 302 302 301 301 302 300 299 299 300 300 301 304 307 306
303 302 300 299 299 298 297 297 296 296 298 299 301 303 302 302 302 301 300 300 300 299 299 299 300 302 304 303 304 304 303 301 301 302 303 303 301 299 298 299 300 300 299 298 298 301 304 303 302 304 306 304 303 303 299 298 300 301 300 301 302 300 299 300 301 303 302 301 305 306 302 302 304 302 301 301 300 301 302 300 299 299 299 299 300 303 306 307
303 303 301 301 302 300 298 298 296 296 298 299 301 303 302 301 302 302 301 299 298 300 300 301 301 303 304 304 304 304 303 302 302 302 303 304 302 300 300 299 299 300 299 298 297 299 304 305 300 300 303 304 301 300 299 298 298 298 299 299 300 299 299 300 300 300 300 300 303 304 300 300 301 300 300 300 299 300 301 299 298 298 298 298 298 300 304 307
302 302 301 301 303 301 299 299 297 296 298 299 301 303 303 301 301 302 302 300 299 300 301 302 303 303 304 304 304 306 304 304 306 305 303 304 303 302 303 301 300 299 298 299 297 296 301 306 300 297 303 305 302 299 297 297 298 299 299 298 297 298 298 299 298 298 298 300 300 300 299 298 298 298 298 298 298 299 299 298 299 298 297 298 297 297 301 305
304 303 301 300 300 299 298 299 298 297 298 298 300 302 301 301 302 301 301 302 304 303 300 301 304 303 302 303 305 307 306 307 311 308 303 303 303 302 304 305 303 299 298 300 299 296 298 304 300 297 303 307 301 296 296 296 298 299 299 296 296 296 296 296 296 296 297 297 297 297 296 296 297 296 297 298 298 298 298 298 298 298 297 297 297 297 298 303
308 307 304 301 299 298 298 298 297 298 299 298 299 300 300 301 302 301 302 302 303 304 300 301 304 303 301 302 305 306 304 304 309 307 302 303 304 303 302 303 303 301 300 299 299 298 297 300 297 296 303 308 301 297 299 298 296 297 301 300 297 296 297 297 295 295 297 299 298 297 300 305 304 298 296 298 296 295 297 297 297 298 298 297 297 297 298 302
308 307 304 303 302 300 298 298 298 299 299 299 299 300 300 301 300 300 303 301 300 302 301 301 302 302 300 301 303 304 302 301 303 302 300 300 301 300 300 301 300 302 300 297 299 299 298 301 301 298 303 310 302 297 300 301 302 309 313 309 302 297 296 295 294 294 295 297 301 302 305 310 307 300 299 301 299 296 297 297 297 298 298 297 297 297 296 300
Wind_Speed
4 4 4 4 5 5 5 4 4 3 2 1 1 1 2 3 3 3 4 4 5 6 6 7 7 7 7 5 4 4 5 10 12 9 9 11 12 12 12 14 14 15 15 13 8 6 6 6 5 3 2 3 5 6 7 6 4 3 3 2 2 2 3 3 5 4 3 3 4 5 8 3 7 14 16 16 13 12 19 24 22 20 18 15 14 12 14 13
4 3 4 4 5 5 5 5 4 4 3 2 2 2 2 3 4 4 4 5 5 5 6 7 7 7 8 6 5 5 3 6 12 12 14 13 12 11 11 12 13 14 14 13 11 11 10 9 6 3 2 4 5 5 5 6 5 3 3 1 3 4 4 3 3 4 2 4 6 7 7 5 7 12 14 11 13 18 18 23 25 23 21 18 15 15 17 15
4 4 4 4 5 5 5 5 5 4 3 3 3 3 3 3 4 5 4 5 5 5 6 7 7 7 8 7 7 7 4 3 10 14 15 13 11 11 10 11 13 13 14 14 15 14 11 10 8 4 4 5 6 5 5 7 6 2 3 1 5 4 4 5 4 7 7 8 8 8 7 8 12 12 10 6 12 17 12 19 23 23 24 21 17 16 17 14
5 5 5 5 5 5 5 5 5 4 4 4 3 3 3 3 4 5 5 5 5 5 5 6 7 7 7 6 8 9 3 1 8 13 13 12 11 10 11 12 13 13 13 14 15 13 9 9 7 3 4 5 6 5 5 8 6 1 2 3 4 2 2 5 6 8 8 8 8 10 9 11 13 11 9 7 8 10 15 22 21 22 27 25 22 20 20 15
5 5 5 6 6 6 5 5 5 5 5 4 4 4 4 4 4 5 5 5 5 5 5 6 7 7 6 5 7 9 3 0 7 11 11 12 11 10 11 13 14 14 14 14 14 11 7 7 4 2 4 5 6 5 3 8 6 2 2 3 2 0 2 6 8 9 9 10 11 11 9 11 13 11 12 9 6 11 20 26 24 26 29 29 28 25 24 19
6 6 6 6 6 6 6 5 5 5 5 4 4 4 4 4 4 5 6 5 5 5 5 5 6 6 6 5 5 8 4 1 5 9 11 12 12 11 11 12 15 14 14 13 12 9 7 8 6 2 3 4 5 4 2 7 6 2 3 2 5 2 4 9 11 12 13 12 13 12 11 14 13 13 15 13 18 24 27 28 29 30 30 30 31 27 25 21
7 7 7 6 6 6 6 5 5 5 5 5 5 5 5 5 5 5 6 6 5 5 6 6 6 6 6 4 3 5 5 3 5 9 10 12 12 11 11 12 14 14 14 13 12 11 10 12 10 6 4 3 2 2 3 8 3 2 3 5 6 6 9 14 16 18 19 18 20 18 16 18 14 11 11 17 29 31 26 25 25 25 25 24 24 23 22 21
8 7 7 7 6 7 6 6 5 5 5 5 5 5 5 5 5 5 6 6 6 5 5 6 6 6 6 4 2 3 4 5 6 8 9 11 12 11 9 11 13 14 15 15 13 13 13 13 12 7 3 3 1 0 3 6 2 5 3 6 7 11 15 19 20 21 20 19 21 18 16 21 18 11 12 24 32 26 19 19 20 20 20 20 18 18 17 18
9 8 7 7 7 7 7 7 6 6 5 5 5 6 5 6 5 5 6 6 6 5 5 6 6 6 5 4 3 2 3 5 6 8 9 10 11 10 9 10 11 13 15 15 12 12 12 11 10 5 4 3 2 1 2 3 2 3 4 8 11 16 20 19 17 14 13 13 12 9 13 18 15 8 13 26 25 16 15 17 20 21 22 21 19 18 17 16
10 9 8 8 8 7 8 7 7 6 6 5 5 5 6 6 5 6 6 6 6 5 6 6 6 6 5 3 2 1 2 5 6 8 9 10 10 10 9 9 10 11 14 14 11 11 12 11 9 5 5 3 2 1 1 2 2 4 7 12 14 19 19 14 11 8 8 8 6 5 9 14 9 0 9 23 21 16 18 18 20 23 25 26 23 20 17 14
12 10 9 8 8 8 8 8 7 6 6 5 5 5 6 6 6 6 6 6 6 5 6 6 6 6 4 3 1 0 2 4 7 9 10 11 10 10 10 10 10 10 13 13 10 10 11 10 9 5 3 2 2 1 1 2 6 8 9 11 13 15 13 7 5 4 8 6 6 5 10 12 5 3 13 25 22 19 22 23 24 25 25 28 29 24 19 17
13 11 10 9 9 9 9 8 8 7 6 5 5 5 6 6 6 6 6 6 5 6 7 7 6 5 5 3 3 2 2 4 7 9 10 11 11 10 12 12 10 10 12 12 9 9 9 9 9 5 2 2 2 2 2 6 9 7 5 5 8 10 8 5 2 4 10 7 6 5 8 8 3 8 19 23 21 22 24 25 27 27 28 30 31 31 26 23
14 13 11 10 10 9 9 9 8 7 6 6 5 5 5 6 6 6 7 7 6 6 7 8 7 5 5 3 3 4 4 5 7 9 10 11 10 10 13 14 10 9 12 11 8 8 8 8 7 4 4 3 1 2 4 8 8 5 3 3 4 8 5 3 3 8 12 6 3 4 5 7 4 11 20 22 22 23 22 23 26 30 32 31 30 30 29 27
14 14 12 11 10 9 9 9 9 7 7 6 5 5 5 6 6 6 7 7 7 6 7 8 6 5 4 2 3 5 5 6 7 9 9 9 9 9 12 14 9 9 11 9 7 6 8 7 5 3 3 4 2 2 4 6 5 3 2 2 3 5 4 6 8 8 8 3 2 3 3 9 7 13 23 24 22 21 21 24 28 31 31 29 28 27 27 27
15 15 13 11 10 10 10 10 9 8 7 6 6 5 6 6 6 7 7 8 8 7 8 9 5 4 4 2 4 5 5 6 8 9 8 8 8 7 10 11 7 8 9 6 5 6 7 6 4 2 2 3 4 3 3 3 4 3 3 4 3 1 5 10 9 3 2 2 0 3 4 9 8 14 24 25 23 23 25 28 29 29 27 25 24 23 23 23
15 15 14 12 11 11 11 10 9 8 7 6 6 6 6 6 6 7 8 8 9 7 9 8 5 3 2 2 3 4 5 7 8 9 9 9 8 9 10 8 7 9 7 3 4 5 6 5 3 3 3 3 3 3 4 4 4 4 3 4 4 3 5 8 6 2 1 1 2 2 4 8 7 15 27 30 29 26 25 28 27 24 22 19 18 18 20 21
16 16 15 14 12 12 11 11 10 8 8 7 6 6 6 7 7 8 8 8 8 8 9 7 5 4 3 3 3 4 6 8 9 8 8 8 9 10 9 6 7 8 4 1 3 5 6 4 1 1 4 4 2 3 5 5 5 4 3 2 4 4 4 6 6 4 5 1 3 3 5 10 13 19 30 35 30 22 21 25 24 20 16 13 14 16 18 20
17 16 16 15 13 12 12 11 10 9 8 8 7 6 7 7 8 9 9 9 8 7 8 5 3 3 3 4 4 6 8 8 8 7 7 7 9 11 8 6 7 6 3 0 2 6 6 4 1 1 4 4 4 5 4 2 3 3 3 3 5 4 4 6 7 4 6 3 5 4 6 12 16 18 25 32 26 17 19 22 20 17 12 11 14 16 19 21
18 18 17 16 14 13 13 12 10 9 9 8 7 7 7 8 9 9 8 7 6 5 4 3 3 2 3 5 6 7 8 8 7 5 6 7 10 11 8 7 4 3 2 0 3 7 6 4 3 2 4 3 2 5 5 5 6 5 4 3 5 6 7 8 9 5 4 5 7 6 8 12 16 15 18 29 25 17 19 19 17 14 10 12 15 17 20 24
19 19 18 17 15 14 13 12 11 10 9 8 7 6 6 6 6 5 5 6 8 8 8 9 8 7 7 7 6 6 6 6 5 5 5 7 10 9 7 6 2 3 5 0 3 6 6 4 2 2 4 4 4 4 5 5 5 3 3 3 5 7 9 9 7 4 3 3 6 5 8 13 16 13 16 25 22 15 16 15 14 13 11 14 16 18 21 26
21 20 20 18 17 15 14 13 12 10 9 8 7 5 4 3 3 4 7 7 8 9 11 11 10 10 9 7 6 5 5 4 4 4 5 8 9 6 6 6 2 3 4 1 3 2 4 3 3 5 6 4 4 5 5 4 4 3 2 3 5 5 9 10 5 2 3 3 6 6 8 14 14 12 15 17 11 10 13 12 13 13 13 16 18 21 23 27
23 22 21 20 18 16 15 14 12 10 9 8 7 5 4 4 4 6 7 7 8 10 10 11 11 10 9 8 6 4 3 3 3 3 6 7 7 5 4 5 4 1 4 3 2 4 4 1 5 5 4 4 4 4 5 4 3 2 2 1 4 4 6 9 3 1 2 2 5 7 7 13 14 11 12 11 8 11 14 12 12 13 15 17 19 23 25 27
24 24 22 21 19 18 17 15 13 11 10 9 7 5 4 4 5 6 7 6 8 9 10 10 10 9 8 6 5 4 3 2 2 4 7 7 6 5 3 4 2 1 4 4 4 3 3 3 4 2 4 5 3 3 5 4 1 3 2 1 5 4 2 5 3 2 5 3 4 6 8 10 9 6 8 9 10 12 14 11 13 15 16 18 19 23 26 26
24 24 23 22 20 19 18 16 13 12 11 9 7 5 3 4 4 7 7 4 5 5 6 8 8 7 7 6 5 3 3 3 3 3 6 7 7 5 3 2 2 2 2 2 6 3 4 3 1 2 2 3 1 3 4 4 3 3 4 4 5 4 2 5 5 9 9 2 1 7 7 5 3 4 6 7 6 9 13 11 13 17 17 19 20 23 26 25
23 23 23 22 21 20 19 16 15 13 12 9 7 5 3 3 3 7 6 2 4 4 3 6 5 5 7 5 5 4 4 3 2 3 5 6 6 4 1 1 1 2 2 3 4 1 5 1 2 2 4 4 2 2 2 3 4 5 4 7 7 5 5 6 7 8 6 3 4 6 5 4 4 4 7 6 4 8 12 9 13 18 16 17 21 25 27 25
24 23 22 22 20 20 18 15 14 14 12 10 8 5 3 3 3 5 4 4 4 3 3 5 4 4 6 5 4 3 4 2 2 3 3 4 5 2 1 0 1 1 3 3 1 1 1 2 2 2 3 4 4 1 3 4 4 5 3 5 5 5 6 6 6 4 2 4 4 5 3 5 5 5 7 5 4 9 11 9 12 17 15 16 22 26 27 26
24 24 23 21 20 20 18 14 15 15 12 10 9 6 4 2 2 3 4 4 4 3 4 5 5 4 5 4 3 2 2 2 2 3 1 4 5 1 1 3 0 1 3 1 2 1 2 2 4 4 5 4 4 1 4 5 4 4 3 2 4 7 8 7 3 0 1 3 5 4 3 3 5 6 7 4 6 9 9 8 10 13 14 19 25 27 28 27
24 24 23 21 20 20 20 16 15 15 12 10 8 7 4 2 3 3 5 2 2 3 4 4 5 4 4 4 3 3 2 2 1 1 2 4 3 1 1 3 3 2 2 1 2 3 2 2 1 2 4 2 1 2 5 6 2 5 3 3 8 7 6 4 2 2 1 2 5 4 3 1 5 6 5 4 5 8 8 8 8 10 15 22 26 28 29 29
25 24 23 22 21 21 21 19 16 14 13 10 8 7 5 5 3 4 5 1 1 3 2 3 5 3 2 2 2 2 2 1 0 2 3 3 2 2 1 3 4 2 2 1 3 4 2 2 3 4 1 3 5 4 6 6 2 6 6 7 6 1 1 1 3 2 2 2 4 3 1 2 5 6 5 3 4 7 9 7 6 10 18 26 28 27 28 29
24 23 23 23 21 21 22 20 17 15 14 11 10 8 8 7 5 5 2 3 1 1 2 5 5 1 1 1 2 2 1 1 3 3 3 1 1 2 0 3 3 4 2 3 3 4 0 1 2 2 3 5 4 2 4 5 4 6 7 5 4 4 3 2 2 2 4 2 5 4 3 1 3 6 4 2 6 9 9 8 9 12 20 28 29 27 27 29
22 21 23 22 22 22 22 21 18 16 15 13 11 12 10 5 4 5 3 3 0 1 2 3 1 2 3 2 1 2 1 2 5 3 2 2 2 2 1 1 1 3 3 4 3 5 4 3 1 2 4 3 0 1 1 1 2 3 4 3 5 5 2 3 4 4 3 4 5 4 3 2 2 6 5 5 8 7 7 9 11 13 20 27 29 27 26 27
20 21 22 21 22 22 22 22 19 17 16 14 15 14 9 2 0 3 4 2 2 2 2 2 1 4 2 1 1 2 1 2 4 4 1 2 2 2 2 1 0 3 4 3 3 6 4 1 2 3 3 3 0 2 4 3 3 5 5 5 5 4 4 4 4 2 1 4 2 4 3 1 4 8 9 10 9 5 6 10 13 16 22 27 28 28 26 25
20 20 21 21 22 24 23 22 20 20 18 18 17 11 6 3 5 6 5 2 0 1 1 3 3 4 2 1 1 2 0 1 2 3 1 0 2 1 1 2 2 2 1 2 2 5 4 4 4 3 2 2 1 2 2 3 4 5 3 4 3 2 5 5 4 3 3 5 2 4 4 2 5 7 7 6 5 6 10 15 19 22 24 25 27 27 25 24
20 20 21 20 21 24 24 22 22 22 21 22 16 6 4 4 6 4 5 4 1 1 2 3 4 4 2 1 2 2 1 1 1 2 1 2 2 1 2 2 1 2 2 1 1 2 1 4 2 1 2 2 1 1 3 3 2 2 3 3 2 3 1 3 3 2 4 6 4 2 2 2 4 6 4 1 5 10 14 20 24 26 26 25 27 26 24 23
20 20 20 19 21 25 25 23 25 24 25 23 11 4 5 6 4 2 4 4 2 1 2 3 4 4 1 1 2 2 2 1 0 2 2 0 2 2 2 3 1 2 3 1 1 2 1 5 4 1 2 0 1 1 2 4 3 1 3 4 1 2 4 2 3 5 3 5 5 2 2 4 5 7 6 5 7 12 16 20 25 27 27 26 26 26 23 21
20 20 20 21 22 26 25 25 25 26 28 21 7 3 7 5 4 5 3 4 4 5 5 3 3 3 1 3 2 1 1 1 0 1 1 2 3 3 2 3 3 4 4 2 2 1 1 5 4 2 2 1 1 2 1 2 1 0 2 1 2 2 5 2 3 2 2 2 4 3 4 5 4 6 5 4 8 12 13 16 22 25 27 26 25 25 22 19
22 21 22 23 22 24 26 26 25 28 28 17 6 6 6 4 6 5 3 5 4 5 7 2 2 4 3 2 2 2 1 2 1 1 2 2 2 4 3 2 2 3 3 3 2 1 1 4 4 1 1 2 1 2 4 4 2 3 1 2 1 3 4 2 1 4 4 1 4 4 6 7 5 3 3 6 12 15 13 13 19 24 26 27 28 26 21 15
23 21 23 24 21 23 27 25 25 28 22 10 6 7 4 5 6 5 7 7 4 4 5 4 4 3 4 3 2 3 2 1 2 1 2 2 2 4 4 2 1 0 2 2 2 0 1 2 5 0 2 3 2 3 3 5 3 3 4 4 2 2 1 1 1 2 3 4 6 5 6 6 2 3 5 10 14 17 16 14 17 22 24 27 29 25 19 13
22 17 18 22 21 24 27 25 25 25 14 6 8 6 3 5 5 6 11 8 3 4 4 4 3 2 4 5 3 3 4 3 3 2 2 1 2 3 5 3 2 1 2 2 2 1 2 0 4 3 2 2 3 1 1 2 2 2 3 2 2 3 3 1 0 1 1 3 5 5 6 5 4 4 3 8 11 13 16 13 13 18 23 26 26 21 18 13
23 13 10 17 21 24 26 25 22 18 8 4 7 4 2 4 5 8 13 8 3 3 3 4 4 3 4 4 3 3 3 3 4 3 2 2 2 3 4 4 4 3 2 2 3 1 2 2 3 4 2 2 2 2 4 4 2 2 2 1 1 1 0 1 1 2 3 1 2 3 6 6 6 3 1 3 8 8 9 9 10 18 24 26 25 21 17 11
24 9 5 14 22 26 28 22 14 10 4 3 4 2 2 3 3 7 13 10 4 2 3 4 4 4 4 3 3 4 3 3 3 2 3 3 2 3 3 6 10 8 3 2 2 1 1 2 3 4 3 2 4 3 1 4 4 4 3 3 2 1 1 1 3 3 2 3 3 1 5 8 7 3 3 0 5 5 5 6 10 19 25 25 24 22 15 8
22 7 5 16 25 30 29 15 6 6 4 3 4 4 4 4 4 7 10 8 4 1 2 3 3 3 4 3 3 4 4 3 3 2 3 4 3 2 2 7 15 13 7 2 1 2 2 3 1 4 4 3 4 4 3 1 3 4 2 3 4 4 4 3 2 4 1 1 1 1 2 8 7 4 4 3 4 7 9 8 11 19 24 24 22 22 14 7
22 8 9 21 28 32 26 7 3 4 3 3 4 4 5 4 4 6 7 7 4 2 2 1 2 3 3 3 4 5 5 4 5 5 3 3 3 2 1 9 15 11 5 2 2 2 3 3 1 4 4 2 3 3 4 5 3 3 1 2 4 3 4 5 4 3 1 2 0 1 3 8 6 3 4 5 6 10 12 10 12 18 24 25 21 19 14 7
22 11 12 22 30 32 20 4 4 8 5 2 2 3 4 3 4 7 6 7 6 4 3 2 3 4 2 3 4 5 6 4 4 5 3 3 2 2 1 11 12 7 3 2 4 6 3 1 2 2 6 6 6 5 5 5 1 2 1 2 4 4 6 4 2 2 1 4 5 3 4 7 6 2 3 8 8 8 9 10 12 16 21 23 20 16 13 8
19 9 10 21 30 30 15 3 2 6 7 5 4 5 4 2 7 12 9 8 8 6 4 2 3 5 3 3 3 3 4 2 1 2 2 2 1 3 2 9 8 4 3 3 6 9 5 1 3 2 1 3 4 4 4 3 2 1 1 3 4 5 7 4 1 3 2 4 5 4 6 8 10 10 11 12 10 9 9 11 13 17 20 21 19 16 11 8
18 7 5 13 22 24 16 9 3 2 6 9 3 4 8 5 5 11 11 8 9 8 4 2 4 6 3 3 4 3 3 1 2 2 2 3 2 3 2 6 4 3 4 6 8 7 3 1 3 5 6 6 6 5 2 1 0 3 4 4 5 5 6 6 4 3 4 2 2 7 9 10 14 15 13 13 13 11 11 12 15 18 21 21 18 15 10 7
16 7 8 12 11 13 16 15 11 3 4 10 6 3 13 12 3 5 7 5 9 10 4 2 3 5 4 6 5 3 4 2 2 3 3 3 2 2 1 3 2 4 6 8 7 5 4 1 4 6 9 9 6 6 2 2 3 6 6 5 6 7 7 7 6 6 5 2 5 8 4 6 13 14 13 13 12 9 9 13 16 16 18 20 18 15 10 6
11 7 18 24 12 7 12 16 18 11 5 10 9 3 10 16 9 6 6 2 5 11 6 1 4 8 9 10 7 4 4 2 1 4 3 3 2 1 1 1 1 5 7 5 4 5 4 3 4 3 7 9 7 8 5 2 5 6 7 9 7 8 10 12 12 9 8 5 9 7 3 8 15 16 14 13 10 10 13 16 16 14 15 17 18 17 12 7
11 4 15 25 13 9 16 18 19 18 10 7 7 4 9 16 14 9 5 3 2 8 10 7 8 11 11 10 8 6 6 5 4 6 4 4 4 3 2 1 3 5 5 3 2 3 3 3 2 1 5 9 8 7 4 3 5 6 10 13 10 10 13 13 11 8 8 11 14 10 12 16 17 15 15 16 15 14 17 18 15 13 14 15 16 17 15 10
24 13 16 19 9 9 19 18 18 15 10 6 8 11 10 12 14 9 5 9 8 5 10 13 10 12 12 10 10 8 10 12 7 6 9 6 3 4 4 3 4 4 3 3 1 1 2 2 1 3 3 8 6 3 2 2 5 7 12 13 9 9 9 10 8 5 6 11 13 10 12 15 15 12 14 17 16 12 13 16 15 14 15 15 15 14 14 11
41 30 23 18 8 9 17 15 14 11 8 9 11 11 8 9 14 12 8 17 18 9 13 19 10 8 8 8 10 12 15 14 6 6 17 15 8 9 8 6 10 8 3 3 3 2 3 1 1 4 1 6 4 2 3 4 4 8 15 14 10 9 7 7 6 6 8 7 3 2 5 9 9 7 8 12 10 8 10 14 16 17 16 15 15 12 11 11
43 34 28 21 9 9 13 9 10 11 10 14 15 12 10 11 14 15 9 15 18 14 18 23 15 9 5 9 15 20 17 12 3 4 16 15 8 9 9 10 15 12 7 6 3 2 4 3 2 3 1 6 5 2 3 5 6 7 11 9 10 10 6 4 3 7 11 7 5 4 7 7 4 3 4 7 6 7 10 13 15 17 16 15 14 11 9 10
Wind_Direction
178 184 194 191 193 200 203 210 217 223 222 235 275 295 314 329 326 341 357 355 354 356 359 4 8 6 7 7 358 342 346 16 19 15 27 28 21 19 13 11 13 11 3 360 4 7 4 354 352 9 359 33 57 59 66 60 80 105 97 102 266 202 194 198 189 207 194 262 281 328 349 350 301 316 322 321 306 297 305 298 290 288 287 292 292 300 311 315
189 196 204 204 201 204 207 212 218 227 233 241 264 282 301 318 318 326 340 345 344 350 354 0 3 1 3 3 6 353 319 8 14 17 27 23 14 10 10 8 8 12 6 2 13 16 12 8 14 41 29 50 51 46 66 45 49 84 101 126 244 202 223 231 213 251 236 273 288 309 322 305 301 313 323 322 301 314 316 298 292 287 280 279 288 296 303 314
190 198 207 211 207 210 211 213 219 226 233 244 261 271 291 307 310 317 329 336 339 345 350 355 359 1 3 360 5 356 303 328 7 17 22 13 8 3 2 7 6 8 8 8 8 4 5 4 7 31 44 53 41 43 60 31 34 74 90 173 245 215 259 283 288 288 275 286 296 300 301 294 296 300 309 309 304 311 295 283 287 286 285 286 297 303 306 314
189 200 209 213 211 213 212 216 221 227 234 242 257 268 280 293 302 310 319 329 335 342 347 350 352 359 2 359 7 358 310 263 5 12 14 7 6 358 358 5 5 5 9 9 359 348 353 4 2 4 33 41 28 48 53 21 22 59 128 192 234 214 291 301 325 318 295 293 290 292 301 297 298 294 285 288 313 299 273 280 283 287 297 300 304 302 304 307
199 208 215 218 217 215 213 219 223 228 234 241 255 266 273 282 295 301 313 327 333 339 344 347 345 350 356 356 9 5 2 120 356 4 7 6 5 355 356 2 2 4 8 3 348 338 338 359 9 10 35 36 24 45 46 22 26 329 226 211 273 255 266 297 325 326 307 300 292 293 298 294 299 292 276 262 244 261 279 293 292 293 299 298 298 296 297 301
213 219 224 225 226 222 220 223 228 232 236 243 254 263 272 278 288 295 306 320 335 341 337 344 343 341 345 349 7 12 37 103 349 1 3 3 4 356 355 359 0 1 5 357 343 346 351 5 30 76 57 45 20 38 24 4 14 330 267 296 329 298 256 293 311 311 305 302 290 285 288 294 299 294 284 253 247 270 291 301 298 297 299 296 294 293 289 290
222 227 230 231 231 229 227 229 234 235 236 245 254 262 271 275 285 293 302 316 334 342 334 338 343 337 336 342 358 12 43 72 8 4 0 360 359 354 353 354 357 354 358 1 356 3 0 8 37 75 81 65 23 39 353 336 347 164 259 306 321 301 279 292 299 296 295 290 283 286 288 287 282 289 295 270 270 285 302 309 308 308 308 301 295 293 285 278
227 231 234 235 236 234 232 233 237 237 237 241 251 262 269 276 286 292 301 314 329 339 334 333 339 337 332 342 350 354 26 40 17 6 0 358 352 349 352 349 351 348 353 7 11 9 2 11 35 60 91 95 108 298 338 340 12 148 232 293 299 293 288 293 294 291 291 288 288 288 278 276 275 279 280 277 285 296 306 317 321 318 316 311 300 296 290 278
229 232 235 237 236 235 233 234 238 239 236 238 249 262 271 279 286 296 303 312 328 337 331 328 337 335 328 342 348 325 2 25 16 4 1 359 349 345 353 350 348 348 354 7 13 9 11 22 30 48 120 128 133 301 349 14 11 178 252 294 289 289 294 298 294 295 300 293 295 283 270 280 284 288 273 277 290 299 303 320 325 321 321 319 308 298 294 287
232 236 237 237 237 235 234 235 239 241 239 239 250 263 271 281 289 300 304 311 326 330 326 327 334 330 322 331 344 330 354 10 9 360 358 1 355 346 349 351 350 351 354 2 9 11 20 27 23 48 114 108 79 344 6 63 315 281 295 294 286 290 297 299 288 304 327 304 294 258 269 285 282 354 272 279 293 297 297 310 317 319 321 321 317 302 289 286
233 237 237 238 239 236 236 236 240 244 240 241 250 263 272 284 294 301 304 313 321 322 322 325 330 321 310 309 289 246 340 353 358 357 356 358 357 346 344 351 352 352 353 359 5 14 22 25 19 35 100 33 359 341 16 11 319 305 316 301 294 304 304 303 286 334 6 337 307 269 266 278 266 177 256 278 296 297 298 304 309 314 316 316 316 308 290 279
234 238 239 240 242 240 239 238 242 246 242 244 251 263 276 284 293 300 302 309 313 313 317 323 328 311 302 298 244 238 307 335 345 351 355 354 353 346 346 352 350 347 352 358 4 16 19 19 17 20 54 17 340 25 352 336 325 310 351 330 310 336 336 341 10 9 3 339 318 319 284 278 209 221 263 285 299 299 301 305 308 311 310 309 309 307 299 285
234 238 241 242 243 244 243 241 245 247 246 245 251 264 275 283 290 296 300 306 305 308 317 323 324 303 302 304 245 242 284 317 335 344 350 348 348 347 344 345 345 347 351 354 360 9 9 10 12 17 57 54 16 10 317 326 333 306 17 35 337 352 338 339 1 339 346 343 342 12 305 282 236 249 280 298 302 303 308 307 308 308 306 308 306 305 303 294
233 236 240 243 243 245 244 244 247 250 251 249 253 265 271 281 288 294 301 302 299 304 318 322 318 299 301 296 256 256 274 308 327 335 342 341 343 344 339 339 339 345 348 351 357 356 357 5 7 9 52 44 7 339 322 343 2 315 345 54 27 359 289 302 327 327 347 4 47 61 262 272 274 277 291 301 303 310 312 307 307 305 306 311 311 310 306 301
232 236 239 242 243 245 245 244 246 251 254 253 258 264 271 279 284 294 297 299 298 300 315 318 303 289 300 278 252 261 283 309 318 325 334 334 337 339 336 336 334 342 345 348 355 345 347 359 10 13 28 28 24 12 0 9 10 14 4 339 351 350 286 310 320 320 342 311 36 115 249 277 276 279 294 304 306 309 309 305 304 305 310 317 319 322 318 313
231 234 236 240 243 245 246 246 245 250 254 256 261 264 272 277 283 294 292 296 297 292 309 310 279 274 309 275 248 265 294 308 314 320 328 332 339 341 341 337 328 341 347 344 355 349 348 4 34 37 28 37 42 32 34 23 352 16 32 317 304 308 315 321 323 1 56 303 283 186 250 284 277 282 296 303 304 307 305 300 301 307 315 323 328 331 328 325
229 231 234 237 240 242 244 245 244 249 253 254 261 265 274 281 287 293 289 295 292 289 305 296 263 281 280 234 245 286 301 306 310 316 325 332 340 342 345 342 328 341 356 337 355 359 0 10 43 37 40 49 53 56 42 13 327 334 17 318 279 280 305 309 304 345 33 32 272 240 244 272 276 286 295 299 304 306 297 292 298 307 313 325 333 334 335 332
228 229 232 234 237 239 242 244 243 247 251 254 261 267 278 285 291 291 287 290 283 287 303 277 248 301 265 223 251 289 302 305 306 314 325 331 339 342 345 344 333 340 2 133 8 12 8 6 69 34 18 20 29 63 59 327 258 276 307 308 298 284 256 271 276 320 14 334 280 278 269 274 280 286 294 299 305 303 290 289 295 299 307 323 332 333 337 339
226 228 230 232 233 235 240 243 241 245 250 254 261 271 284 291 293 288 281 280 268 271 293 252 229 266 267 260 271 286 299 303 302 313 324 332 338 336 340 347 340 355 23 91 1 11 14 12 60 47 342 338 36 99 142 200 198 223 252 254 286 291 272 265 267 287 354 310 279 277 275 279 288 293 297 300 307 305 292 292 294 293 300 314 326 329 334 339
224 227 228 229 230 233 239 241 241 243 248 255 261 273 292 303 303 293 290 284 263 258 264 260 257 262 274 281 278 283 298 302 299 312 323 333 336 330 339 348 1 57 46 91 315 357 31 39 90 193 255 249 216 167 149 164 168 187 225 244 263 280 284 277 269 278 15 330 269 266 283 284 287 290 289 295 305 307 294 293 293 290 298 310 319 324 329 333
223 225 227 227 228 232 236 239 240 241 246 253 259 271 290 308 309 309 315 301 275 268 262 257 258 262 270 276 277 285 301 301 287 309 328 333 340 332 332 352 41 42 9 272 252 336 48 73 204 217 222 214 193 165 126 125 143 168 210 265 280 264 268 278 279 280 38 18 287 293 303 286 284 288 286 292 301 293 287 288 288 289 301 313 317 319 324 327
223 225 226 226 227 231 234 238 238 238 243 248 253 262 273 288 288 305 319 300 280 274 255 249 252 256 262 263 268 279 297 302 264 308 335 337 350 343 331 15 60 21 332 338 9 4 18 214 226 218 176 118 96 110 105 118 159 196 196 253 290 270 275 287 275 165 27 349 296 317 311 287 286 283 278 281 271 272 286 287 284 290 297 306 315 318 321 322
223 224 225 225 226 229 232 236 236 235 238 240 245 251 263 287 293 315 324 298 285 276 250 244 244 247 255 254 262 270 285 302 262 315 345 349 4 12 16 44 70 1 353 16 63 37 342 257 232 202 144 120 84 69 86 74 77 206 203 250 280 293 327 298 288 340 320 275 263 298 288 281 290 288 282 277 261 272 294 293 281 285 289 298 311 316 319 320
224 224 225 225 225 227 229 233 233 231 233 234 239 242 258 284 295 327 331 297 287 279 239 229 226 235 240 242 258 264 287 290 262 324 352 1 15 21 32 64 62 27 13 109 115 142 253 254 163 90 89 125 104 13 80 68 352 255 216 209 247 280 247 246 294 328 323 297 298 313 302 286 286 289 288 283 272 283 299 299 283 283 291 302 312 317 319 320
224 223 225 225 224 224 225 228 228 227 228 228 230 231 248 278 314 343 352 347 301 287 222 208 211 225 227 235 254 264 299 272 229 331 349 5 17 24 37 76 34 347 236 178 121 222 263 267 121 117 49 54 62 341 159 119 358 310 241 202 222 270 265 262 305 332 342 344 351 5 353 302 270 263 274 291 322 303 301 299 283 287 298 308 316 322 322 322
223 222 223 223 222 220 220 221 224 225 221 221 225 217 229 271 351 5 28 39 312 260 164 183 191 195 214 233 255 271 310 263 237 317 346 9 5 26 56 317 6 319 230 201 138 275 249 58 63 135 80 48 48 338 224 134 50 323 267 190 214 262 276 288 313 341 356 298 316 52 44 284 294 286 265 274 298 290 296 294 282 290 303 315 323 326 324 322
222 220 221 221 219 215 213 213 219 219 212 215 219 206 216 243 49 44 53 26 299 214 138 167 174 182 212 226 239 239 298 277 283 303 357 6 353 29 286 276 190 264 241 200 345 293 153 72 19 50 64 47 47 40 208 141 78 285 242 136 280 285 284 288 298 239 236 287 318 37 86 261 296 286 259 273 301 293 293 286 283 294 307 320 325 325 325 322
221 219 220 219 217 213 210 212 216 213 209 212 206 196 198 146 118 97 82 42 273 144 121 163 165 180 203 204 220 221 264 296 316 274 340 353 338 51 264 237 178 223 277 73 287 272 139 130 232 90 48 0 254 202 182 136 95 261 256 311 293 285 281 272 172 193 341 7 319 338 46 297 271 271 274 289 296 293 295 292 290 301 315 324 325 324 324 322
221 219 219 219 216 212 210 210 211 208 206 201 186 184 169 137 126 78 81 160 211 108 117 164 156 168 175 170 234 248 244 277 60 289 329 356 308 341 325 221 153 128 342 15 230 244 125 140 176 138 108 253 237 223 172 145 214 280 306 307 300 22 52 74 121 135 55 43 274 263 46 349 280 277 299 313 301 305 310 305 296 308 323 329 326 323 323 321
224 221 219 219 216 211 208 205 204 204 198 187 179 169 143 129 102 70 84 231 207 95 115 154 165 160 94 157 288 310 217 267 334 328 326 343 267 315 242 205 131 109 355 337 258 251 164 130 168 148 207 228 226 231 174 173 245 315 342 321 338 35 57 70 77 89 72 319 256 212 156 76 298 284 285 291 300 311 319 314 309 317 328 330 324 321 322 319
226 224 221 219 214 210 207 203 199 196 190 181 170 157 142 120 75 103 189 241 122 127 113 138 179 70 97 175 262 319 354 330 342 1 348 353 348 350 64 158 88 61 359 351 308 302 8 68 242 266 252 243 230 336 346 199 253 357 19 6 355 345 7 32 359 38 57 284 250 192 181 149 229 272 281 279 290 309 324 316 315 323 329 328 322 319 322 319
226 224 221 218 211 207 203 201 196 187 182 173 164 158 143 112 24 178 222 318 36 209 162 145 74 81 84 301 270 298 338 339 359 37 62 9 13 357 29 159 162 19 345 327 327 337 7 116 309 329 275 243 169 12 351 347 18 31 26 23 12 342 0 10 340 4 284 270 215 169 205 224 233 257 277 286 298 325 319 306 312 321 327 325 320 321 324 324
225 223 219 215 208 202 198 197 191 181 175 168 164 156 111 117 217 218 229 258 92 247 95 102 97 90 85 304 272 290 278 226 2 41 119 26 25 333 313 216 175 71 295 257 342 357 346 308 334 356 282 262 150 73 3 318 6 29 38 43 43 27 8 335 304 322 287 278 259 177 189 280 283 268 261 268 305 335 326 320 323 324 325 324 322 323 326 330
223 223 218 213 207 198 193 191 186 176 171 166 159 136 109 184 230 234 224 226 244 4 57 87 94 80 82 178 267 270 218 249 14 55 358 13 34 307 266 270 321 84 107 93 31 53 1 302 311 138 254 306 353 103 138 152 61 53 137 116 100 129 110 278 256 265 289 297 295 231 183 222 275 283 282 338 343 337 335 334 336 333 328 327 327 330 332 334
220 221 218 214 206 197 191 187 182 174 171 166 148 118 179 203 231 227 216 213 206 134 76 72 96 91 13 290 297 268 210 255 36 69 7 355 192 208 209 232 217 126 120 90 278 133 131 265 262 270 270 269 18 255 133 106 68 6 126 99 10 184 157 208 222 213 271 312 298 265 231 219 233 278 311 10 345 337 341 344 347 340 333 333 331 334 338 335
216 217 219 219 207 194 188 185 180 175 173 166 147 195 204 211 204 196 189 154 154 154 130 77 90 111 281 288 309 315 196 223 68 52 309 251 220 211 199 219 192 155 142 137 219 152 54 278 284 349 337 19 23 223 155 59 101 74 69 87 264 162 127 136 273 283 35 343 283 292 285 283 300 299 318 359 331 337 347 347 350 341 334 338 335 335 341 337
211 214 221 222 207 191 188 185 180 178 176 170 180 212 208 214 200 190 158 126 134 142 132 137 195 169 196 246 255 252 212 237 264 51 262 270 247 205 192 220 179 175 187 153 167 203 173 274 295 34 100 327 343 125 60 33 100 102 90 219 226 73 87 99 308 335 26 279 272 302 293 299 336 316 317 347 336 342 350 346 350 343 338 341 338 339 346 343
207 214 227 224 206 191 187 185 183 180 176 176 212 218 202 204 204 180 161 148 126 114 127 179 202 176 182 193 223 217 176 212 234 174 210 253 250 186 156 167 161 246 243 165 123 176 124 284 301 311 173 302 344 108 53 10 30 98 150 165 106 55 322 4 22 335 348 309 291 293 285 286 276 273 324 349 343 342 344 347 352 344 337 339 337 339 348 347
203 209 229 225 203 189 186 185 183 180 175 186 207 212 204 207 225 193 173 161 128 128 153 198 186 107 162 169 169 193 183 190 193 176 185 212 243 197 162 166 165 179 218 145 130 194 105 75 287 268 208 305 357 122 203 323 4 62 100 81 69 151 182 223 120 155 167 302 303 307 307 291 242 244 325 345 339 339 340 344 351 339 333 335 336 339 346 346
199 197 233 221 197 187 185 181 180 179 185 208 195 199 204 202 222 196 182 174 137 151 187 194 159 136 168 172 167 176 174 180 171 171 211 220 247 226 193 165 146 152 182 107 110 125 64 105 251 286 319 309 288 222 192 180 166 105 76 15 309 173 100 264 236 138 136 192 288 312 307 290 265 240 159 338 329 335 337 336 339 336 333 336 344 348 347 353
192 193 247 202 183 183 178 172 179 187 202 237 192 188 202 183 185 184 187 189 175 157 168 154 149 157 155 158 193 175 146 167 177 176 224 227 230 227 201 166 155 150 130 90 116 161 112 143 215 291 325 266 251 271 190 174 167 142 154 178 170 145 62 9 299 315 97 165 189 245 292 284 270 233 155 230 314 328 351 341 332 336 338 340 352 360 360 23
181 195 222 179 175 178 173 168 195 190 185 212 190 189 191 167 159 177 186 191 187 149 131 125 126 150 155 158 173 160 147 164 187 187 219 225 214 221 216 170 161 151 131 117 207 191 135 110 130 274 262 237 273 320 18 90 136 117 128 152 125 122 122 119 258 276 331 274 220 134 270 273 264 217 180 240 309 6 17 351 326 335 343 348 358 10 20 52
180 188 179 172 173 173 172 184 253 198 222 219 184 193 191 167 149 162 177 191 195 153 123 153 171 172 187 163 138 162 182 180 180 186 212 225 215 283 241 170 163 152 122 116 201 164 118 90 52 287 288 327 329 327 8 23 78 112 107 136 130 133 138 147 181 196 255 272 228 88 259 271 272 194 187 261 320 13 13 347 326 334 347 356 4 14 23 44
175 170 168 173 173 172 179 219 203 198 232 218 190 215 195 198 189 165 174 198 193 160 141 187 198 184 187 134 126 174 197 192 191 192 194 194 197 329 196 169 167 161 149 171 170 166 177 97 92 344 334 343 347 348 347 345 350 191 224 145 145 124 114 127 145 92 312 233 164 144 249 264 281 286 286 300 327 4 3 353 342 336 345 355 3 13 19 26
160 148 169 179 178 181 199 276 141 190 204 188 216 210 178 233 213 193 190 191 186 171 154 178 168 140 125 111 105 155 182 188 217 181 153 185 213 9 127 171 177 172 170 168 151 155 175 232 140 127 328 282 287 309 298 278 246 228 207 154 164 144 135 153 122 80 279 237 153 166 241 267 295 312 318 322 336 348 348 355 351 343 348 354 360 10 15 15
162 151 166 179 188 201 228 263 264 194 187 187 212 203 193 219 219 198 194 186 190 178 135 128 144 117 99 135 138 173 193 43 39 143 154 189 227 2 103 171 188 176 149 141 142 137 114 291 201 180 195 211 228 249 250 105 261 263 249 199 181 170 143 126 110 160 204 197 194 228 243 276 293 303 316 323 332 336 337 345 342 342 354 1 359 3 8 8
173 174 169 165 187 222 240 249 242 227 166 182 185 196 203 208 198 185 194 198 199 183 140 50 161 151 162 164 153 185 188 90 70 171 168 168 197 355 116 165 161 160 146 138 148 125 84 267 235 199 222 241 248 256 304 26 266 252 249 226 187 167 146 146 183 203 165 108 277 250 235 282 286 296 310 312 321 328 324 330 330 332 349 1 2 2 6 8
182 202 188 178 173 197 217 225 216 208 209 196 190 178 201 203 195 179 185 181 191 188 182 251 211 193 179 165 160 165 158 127 224 201 170 142 160 67 85 201 179 165 156 142 158 126 104 229 229 191 249 269 271 270 280 267 259 255 246 241 211 175 173 191 214 202 160 200 252 258 306 294 283 293 300 293 302 311 308 319 328 329 338 351 358 1 5 9
184 210 190 187 189 184 191 195 186 191 218 218 206 213 200 202 200 185 152 108 193 214 204 206 211 199 187 173 162 151 160 184 213 206 181 148 164 155 120 237 226 183 160 133 149 138 133 222 213 143 284 285 277 281 285 238 259 271 253 244 224 199 197 207 226 207 187 233 256 272 292 288 278 277 277 280 292 302 309 323 335 339 344 349 351 351 355 6
195 198 176 180 204 188 179 175 165 182 216 221 223 229 209 197 195 184 148 163 185 209 203 209 204 182 186 183 166 180 203 194 182 183 173 149 150 191 186 184 173 162 157 143 119 125 161 231 137 97 314 293 286 327 25 212 235 256 263 254 224 208 212 221 239 216 201 250 266 269 279 281 273 260 257 273 290 305 317 330 338 342 349 353 351 347 348 358
206 209 186 174 195 176 167 165 157 172 207 209 216 219 201 197 192 184 194 204 203 186 182 198 188 150 176 187 185 218 218 189 159 165 174 172 178 191 195 176 153 146 157 164 140 128 154 214 58 85 327 284 295 16 337 290 260 260 273 265 219 191 195 208 220 192 188 218 241 240 261 260 258 260 263 274 295 326 330 331 335 339 349 354 352 350 344 346
204 207 196 186 185 163 165 166 160 175 205 210 212 207 198 203 187 176 203 224 217 209 196 191 169 133 164 191 204 223 212 174 118 141 169 175 177 175 177 167 157 155 161 155 133 148 154 152 154 128 202 268 285 311 298 317 312 273 266 245 192 179 189 207 228 211 198 178 145 181 229 237 247 312 309 295 314 339 335 335 333 333 343 354 355 354 344 339